Marshfield, WI

5:48 AM CDT on October 21, 2017 (GMT -0500)
Marshfield Municipal

Weather History for KMFI - February, 2013

Change the Weather History Date:

Friday, February 8, 2013

  Actual Average Record
Temperature  
Mean Temperature 13 °F -  
Max Temperature 21 °F 24 °F 50 °F (1991)
Min Temperature 5 °F 3 °F -27 °F (1971)
Degree Days  
Heating Degree Days 52    
Moisture  
Dew Point 8 °F    
Average Humidity 73    
Maximum Humidity 87    
Minimum Humidity 57    
Precipitation  
Precipitation 0.00 in - - ()
Sea Level Pressure  
Sea Level Pressure 30.34 in    
Wind  
Wind Speed 7 mph (NE)    
Max Wind Speed 14 mph    
Max Gust Speed 21 mph    
Visibility 10 miles    
Events      
Averages and records for this station are not official NWS values.
T = Trace of Precipitation, MM = Missing Value Source: NWS Daily Summary

Daily Weather History Graph

Daily Weather History Graph

Search for Another Location

Airport or City:

Trip Planner

Search our weather history database for the weather conditions in past years. The results will help you decide how hot, cold, wet, or windy it might be!

Date:

Astronomy

Feb. 08, 2013 Rise Set
Actual Time 7:10 AM CST 5:19 PM CST
Civil Twilight 6:40 AM CST 5:50 PM CST
Nautical Twilight 6:05 AM CST 6:24 PM CST
Astronomical Twilight 5:31 AM CST 6:58 PM CST
Moon 5:41 AM CST (2/8) 3:52 PM CST (2/8)
Length of Visible Light 11h 10m
Length of Day
10h 09m
Waning Crescent, 3% of the Moon is Illuminated
Feb 8
Waning Crescent
Feb 10
New
Feb 17
First Quarter
Feb 25
Full
Mar 4
Last Quarter

Hourly Weather History & Observations

Time (CST) Temp. Windchill Dew Point Humidity Pressure Visibility Wind Dir Wind Speed Gust Speed Precip Events Conditions
12:02 AM 21.2 °F 10.9 °F 17.6 °F 86% 30.16 in 10.0 mi NNE 9.2 mph - N/A   Overcast
12:54 AM 21.0 °F 8.6 °F 16.0 °F 81% 30.23 in 10.0 mi NNE 12.7 mph 20.7 mph N/A   Overcast
1:54 AM 19.9 °F 6.7 °F 15.1 °F 81% 30.25 in 10.0 mi NNE 13.8 mph - N/A   Overcast
2:06 AM 19.4 °F 8.6 °F 14.0 °F 80% 30.18 in 10.0 mi NNE 9.2 mph 20.7 mph N/A   Overcast
2:54 AM 19.0 °F 5.6 °F 12.0 °F 74% 30.25 in 10.0 mi NNE 13.8 mph 19.6 mph N/A   Mostly Cloudy
3:54 AM 16.0 °F 4.4 °F 10.0 °F 77% 30.27 in 10.0 mi NNE 9.2 mph - N/A   Partly Cloudy
4:54 AM 14.0 °F 2.9 °F 8.1 °F 77% 30.29 in 10.0 mi North 8.1 mph - N/A   Clear
6:54 AM 8.1 °F -0.5 °F 3.9 °F 83% 30.35 in 10.0 mi North 4.6 mph - N/A   Clear
7:54 AM 12.0 °F 0.5 °F 6.1 °F 77% 30.37 in 10.0 mi North 8.1 mph - N/A   Clear
8:54 AM 12.9 °F 2.6 °F 6.1 °F 74% 30.39 in 10.0 mi NNE 6.9 mph - N/A   Clear
9:54 AM 15.1 °F 4.2 °F 7.0 °F 70% 30.40 in 10.0 mi NNE 8.1 mph - N/A   Clear
10:54 AM 17.1 °F 8.7 °F 7.0 °F 65% 30.40 in 10.0 mi NNE 5.8 mph - N/A   Clear
11:54 AM 19.0 °F 13.9 °F 8.1 °F 62% 30.40 in 10.0 mi NE 3.5 mph - N/A   Clear
12:54 PM 19.9 °F 14.9 °F 7.0 °F 57% 30.39 in 10.0 mi ENE 3.5 mph - N/A   Clear
1:54 PM 21.9 °F - 10.0 °F 60% 30.38 in 10.0 mi Calm Calm - N/A   Clear
2:54 PM 19.9 °F - 7.0 °F 57% 30.38 in 10.0 mi Calm Calm - N/A   Clear
3:54 PM 19.9 °F 14.9 °F 7.0 °F 57% 30.38 in 10.0 mi South 3.5 mph - N/A   Clear
4:54 PM 19.0 °F - 6.1 °F 57% 30.37 in 10.0 mi Calm Calm - N/A   Clear
5:54 PM 14.0 °F - 6.1 °F 71% 30.38 in 10.0 mi Calm Calm - N/A   Clear
6:54 PM 10.9 °F - 5.0 °F 77% 30.39 in 10.0 mi Calm Calm - N/A   Clear
7:54 PM 10.0 °F - 5.0 °F 80% 30.39 in 10.0 mi Calm Calm - N/A   Clear
8:54 PM 9.0 °F - 3.9 °F 80% 30.39 in 10.0 mi Calm Calm - N/A   Clear
9:54 PM 5.0 °F -2.1 °F 1.0 °F 84% 30.39 in 10.0 mi ESE 3.5 mph - N/A   Clear
10:54 PM 6.1 °F - 3.0 °F 87% 30.38 in 10.0 mi Calm Calm - N/A   Clear
11:54 PM 8.1 °F -2.0 °F 3.9 °F 83% 30.37 in 10.0 mi SE 5.8 mph - N/A   Clear